Find Starlink 11101

NORAD ID: 59715 Int'l Des: 2024-088 Owner: SPXS Country: US Constellation: starlink operational
LEOCIRCULAR

Live Position

Loading 3D Globe...

About Starlink 11101

Description loading...

Upcoming Passes

Passes for default location (London). Set your location on the main map for personalized predictions.

Altitude History

Loading altitude history...

Two-Line Element Set

1 59715U 24088H 26126.18426882 .00000156 00000-0 61514-5 0 9999
2 59715 53.1595 42.7510 0001205 88.2301 271.8855 15.69695589115305
Epoch: May 6, 2026 • Age: 5 hours

Current Status

Altitude 360.0 km
Velocity 7.70 km/s
Sub-Earth Point 21.60°N, 164.55°W
Launch Date May 10, 2024
Age 1.9 years
Type internet

Technical Details

Classification Payload
Mass 960.00 kg
Dry Mass 910.00 kg
Total Mass 960.00 kg
Length 0.30 m
Diameter 4.10 m
Span 29.00 m
Shape Box + pan
Manufacturer SPXS
Bus Type Starlink V2MD
Phase Status In Orbit
Owner/State SPXS/US

Most Searched